| time (UTC) | temp F | wind direction | speed MPH | gust MPH | rain 1hr in | rain 24hr in | rain mn in | humidity % | barometer mb |
| 20260505024519 | 69 | 84 | 4.0 | 8.0 | 0.00 | 0.00 | 0.00 | 83 | 1015.4 |
| 20260505023027 | 70 | 93 | 4.0 | 8.0 | 0.00 | 0.00 | 0.00 | 82 | 1015.3 |
| 20260505021531 | 70 | 71 | 3.0 | 4.0 | 0.00 | 0.00 | 0.00 | 81 | 1015.2 |
| 20260505020028 | 71 | 88 | 3.0 | 7.0 | 0.00 | 0.00 | 0.00 | 80 | 1015.2 |
| 20260505014516 | 72 | 88 | 5.0 | 11.0 | 0.00 | 0.00 | 0.00 | 79 | 1015.3 |
| 20260505013021 | 72 | 113 | 6.0 | 9.0 | 0.00 | 0.00 | 0.00 | 78 | 1015.1 |
| 20260505011526 | 73 | 82 | 4.0 | 7.0 | 0.00 | 0.00 | 0.00 | 77 | 1015.0 |
| 20260505010029 | 74 | 101 | 5.0 | 11.0 | 0.00 | 0.00 | 0.00 | 75 | 1014.9 |
| 20260505004528 | 74 | 108 | 7.0 | 11.0 | 0.00 | 0.00 | 0.00 | 74 | 1014.9 |
| 20260505003019 | 75 | 110 | 9.0 | 15.0 | 0.00 | 0.00 | 0.00 | 73 | 1014.5 |
| 20260505001524 | 75 | 121 | 7.0 | 12.0 | 0.00 | 0.00 | 0.00 | 71 | 1014.0 |
| 20260505000029 | 76 | 76 | 9.0 | 14.0 | 0.00 | 0.00 | 0.00 | 71 | 1014.1 |
| 20260504234533 | 76 | 82 | 5.0 | 11.0 | 0.00 | 0.00 | 0.00 | 70 | 1013.8 |
| 20260504233017 | 77 | 105 | 9.0 | 13.0 | 0.00 | 0.00 | 0.00 | 68 | 1013.6 |
| 20260504231521 | 77 | 112 | 10.0 | 15.0 | 0.00 | 0.00 | 0.00 | 67 | 1013.3 |
| 20260504230006 | 78 | 95 | 10.0 | 20.0 | 0.00 | 0.00 | 0.00 | 65 | 1013.4 |
| 20260504224513 | 79 | 92 | 11.0 | 16.0 | 0.00 | 0.00 | 0.00 | 64 | 1013.4 |
| 20260504223014 | 79 | 97 | 12.0 | 19.0 | 0.00 | 0.00 | 0.00 | 63 | 1013.2 |
| 20260504221519 | 80 | 86 | 13.0 | 20.0 | 0.00 | 0.00 | 0.00 | 62 | 1013.2 |
| 20260504220006 | 81 | 98 | 10.0 | 17.0 | 0.00 | 0.00 | 0.00 | 60 | 1013.2 |
| 20260504214518 | 81 | 104 | 12.0 | 17.0 | 0.00 | 0.00 | 0.00 | 59 | 1013.3 |
| 20260504213012 | 81 | 98 | 13.0 | 17.0 | 0.00 | 0.00 | 0.00 | 59 | 1013.3 |
| 20260504211526 | 81 | 94 | 12.0 | 17.0 | 0.00 | 0.00 | 0.00 | 60 | 1013.3 |
| 20260504210022 | 81 | 59 | 9.0 | 17.0 | 0.00 | 0.00 | 0.00 | 59 | 1013.3 |
| 20260504204514 | 82 | 100 | 13.0 | 20.0 | 0.00 | 0.00 | 0.00 | 58 | 1013.3 |
| 20260504203012 | 82 | 80 | 12.0 | 16.0 | 0.00 | 0.00 | 0.00 | 56 | 1013.3 |
| 20260504201514 | 81 | 80 | 10.0 | 18.0 | 0.00 | 0.00 | 0.00 | 57 | 1013.4 |
| 20260504200020 | 82 | 94 | 8.0 | 15.0 | 0.00 | 0.00 | 0.00 | 56 | 1013.5 |
| 20260504194523 | 83 | 96 | 11.0 | 18.0 | 0.00 | 0.00 | 0.00 | 56 | 1013.5 |
| 20260504193009 | 82 | 79 | 11.0 | 17.0 | 0.00 | 0.00 | 0.00 | 56 | 1013.7 |
| 20260504191520 | 82 | 81 | 9.0 | 19.0 | 0.00 | 0.00 | 0.00 | 58 | 1014.2 |
| 20260504190020 | 82 | 112 | 10.0 | 18.0 | 0.00 | 0.00 | 0.00 | 58 | 1014.4 |
| 20260504184528 | 81 | 84 | 11.0 | 15.0 | 0.00 | 0.00 | 0.00 | 58 | 1014.6 |
| 20260504183008 | 82 | 90 | 8.0 | 14.0 | 0.00 | 0.00 | 0.00 | 57 | 1014.9 |
| 20260504181517 | 82 | 46 | 10.0 | 18.0 | 0.00 | 0.00 | 0.00 | 59 | 1015.1 |
| 20260504180022 | 81 | 73 | 12.0 | 16.0 | 0.00 | 0.00 | 0.00 | 59 | 1015.3 |
| 20260504174524 | 81 | 84 | 11.0 | 17.0 | 0.00 | 0.00 | 0.00 | 57 | 1015.2 |
| 20260504173031 | 80 | 51 | 7.0 | 14.0 | 0.00 | 0.00 | 0.00 | 59 | 1015.5 |
| 20260504171511 | 80 | 79 | 5.0 | 11.0 | 0.00 | 0.00 | 0.00 | 57 | 1015.6 |
| 20260504081515 | 65 | 12 | 0.0 | 0.0 | 0.00 | 0.00 | 0.00 | 91 | 1014.8 |
| 20260504050016 | 68 | 40 | 0.0 | 4.0 | 0.00 | 0.00 | 0.00 | 86 | 1016.2 |
| 20260504044522 | 68 | 360 | 1.0 | 5.0 | 0.00 | 0.00 | 0.00 | 86 | 1016.1 |
| 20260504043024 | 68 | 34 | 0.0 | 3.0 | 0.00 | 0.00 | 0.00 | 86 | 1016.1 |
| 20260504041527 | 69 | 32 | 0.0 | 0.0 | 0.00 | 0.00 | 0.00 | 86 | 1016.2 |
| 20260504040014 | 69 | 66 | 0.0 | 3.0 | 0.00 | 0.00 | 0.00 | 85 | 1016.4 |
| 20260504034531 | 69 | 52 | 0.0 | 0.0 | 0.00 | 0.00 | 0.00 | 85 | 1016.6 |
| 20260504033035 | 69 | 53 | 0.0 | 3.0 | 0.00 | 0.00 | 0.00 | 85 | 1016.6 |
| 20260504031531 | 69 | 80 | 0.0 | 4.0 | 0.00 | 0.00 | 0.00 | 84 | 1016.5 |
| 20260504030031 | 69 | 63 | 1.0 | 4.0 | 0.00 | 0.00 | 0.00 | 85 | 1016.5 |